Regional Weather Roundup
Issued by NWS

Home | Current Version | Previous Version | Graphics & Text | Print | Product List | Glossary On
Versions: 1 2 3 4 5 6 7 8 9 10 11 12 13 14 15 16 17 18 19 20 21 22 23 24 25 26 27 28 29 30 31 32 33 34 35 36 37 38 39 40 41 42 43 44 45 46 47 48 49 50
000
ASUS43 KDTX 301010
RWRMI
MICHIGAN HOURLY REGIONAL WEATHER ROUNDUP
NATIONAL WEATHER SERVICE DETROIT/PONTIAC MI
600 AM EDT MON MAY 30 2016

NOTE: "FAIR" INDICATES FEW OR NO CLOUDS BELOW 12,000 FEET WITH NO
SIGNIFICANT WEATHER AND/OR OBSTRUCTION TO VISIBILITY.

MIZ047>049-052>055-059>063-066>070-074>076-081>083-301100-
SOUTHEAST LOWER MICHIGAN

CITY           SKY/WX    TMP DP  RH WIND       PRES   REMARKS
ADRIAN         CLEAR     59  55  87 W5        30.01R
ALMA           CLEAR     58  56  92 CALM      29.98R
ANN ARBOR      CLEAR     56  54  93 CALM      29.98S
BAD AXE        CLEAR     59  57  94 W3        29.96R
CARO           CLEAR     58  56  91 SW3       29.96R
DETROIT CITY   CLEAR     64  56  75 SW7       29.98R
DETROIT        PTCLDY    62  56  80 SW5       29.99R
FLINT          PTCLDY    63  55  75 W6        29.98R
GROSSE ILE     CLEAR     63  57  82 CALM      29.97S
HILLSDALE      CLEAR     62  54  74 W3        30.02R
HOWELL         CLEAR     59  56  89 W6        29.99S

CITY           SKY/WX    TMP DP  RH WIND       PRES   REMARKS
JACKSON        CLEAR     58  56  93 CALM      30.00R
LAMBERTVILLE   CLEAR     59  56  88 CALM      30.00S
LANSING        CLEAR     62  56  80 W5        30.00R
LAPEER         FAIR      62  56  80 CALM      29.98R
MASON          CLEAR     62  56  81 CALM      30.00R
MONROE         CLEAR     61  57  87 W5        29.99S
MT. CLEMENS    CLEAR     63  57  82 SW6       29.96R
PONTIAC        PTCLDY    62  56  80 W6        29.97S
PORT HOPE        N/A     63  60  90 VRB6      29.92R
PORT HURON       N/A     55  55 100 CALM      29.97R FOG
TRI CITIES     PTCLDY    63  57  81 W8        29.97R
MIDLAND        FAIR      61  57  88 W3        29.96R
TROY           CLEAR     65  56  72 W5        29.99S
SAGINAW HB     CLEAR     63  55  77 W7        29.96R
$$
MIZ043>046-050>051-056>058-064>065-071>073-077>080-301100-
SOUTHWEST LOWER MICHIGAN

CITY           SKY/WX    TMP DP  RH WIND       PRES   REMARKS
BATTLE CREEK   CLEAR     60  56  86 CALM      30.01R
BENTON HARBOR  CLEAR     59  56  89 CALM      30.00R
BIG RAPIDS     CLEAR     57  56  95 CALM      29.97S
COLDWATER      CLEAR     58  56  90 W5        30.01S
FREMONT        FAIR      53  53 100 CALM      29.98R
HOLLAND        CLEAR     58  54  86 SW3       30.00R
GRAND RAPIDS   PTCLDY    61  55  81 CALM      29.99S
IONIA          FAIR      60  55  81 W3        29.99R
KALAMAZOO      CLEAR     61  55  81 CALM      30.02R
LUDINGTON      CLEAR     50  50 100 E3        29.97S
MARSHALL       CLEAR     61  56  85 CALM      30.01R
MOUNT PLEASANT CLEAR     61  57  88 CALM      29.97R
MUSKEGON       PTCLDY    58  54  86 CALM      29.98R
SOUTH HAVEN    PTCLDY    58  57  95 CALM      30.00R
$$
MIZ016>042-301100-
NORTHERN LOWER MICHIGAN

CITY           SKY/WX    TMP DP  RH WIND       PRES   REMARKS
ALPENA         PTCLDY    62  57  83 W7        29.91R
BEAVER ISLAND  CLEAR     52  51  98 W7        29.92S
BELLAIRE       CLEAR     58  55  91 CALM      29.95R
CADILLAC       CLEAR     52  51  97 CALM      29.97R
CHARLEVOIX     CLEAR     57  54  89 W9        29.96R
FRANKFORT      MOCLDY    53  52  98 CALM      29.95S
GAYLORD        CLEAR     59  55  87 W7        29.94R
GRAYLING       CLEAR     58  56  95 SW3       29.96R
HARBOR SPRINGS PTCLDY    56  54  92 W3        29.92S
HOUGHTON LAKE  CLEAR     61  56  83 W9        29.96R
OSCODA         CLEAR     60  57  90 W8        29.92R
PELLSTON       PTCLDY    59  54  83 W6        29.91R
ROGERS CITY    MOCLDY    60  55  84 W6        29.90R
TRAVERSE CITY  CLEAR     58  55  90 SW3       29.94R
$$
MIZ007>008-015-301100-
EASTERN UPPER MICHIGAN

CITY           SKY/WX    TMP DP  RH WIND       PRES   REMARKS
KINROSS          N/A     57  57 100 W8        29.88R
MACKINAC ISLAN CLOUDY    57  57 100 W12G17    29.89R
NEWBERRY       CLOUDY    58  56  95 W9        29.89R
S. S. MARIE    CLOUDY    56  53  90 W12       29.86R
MUNISING         N/A     56  53  90 SW8       29.89S
$$
MIZ004>006-011>014-085-301100-
CENTRAL UPPER MICHIGAN

CITY           SKY/WX    TMP DP  RH WIND       PRES   REMARKS
MANISTIQUE     CLEAR     56  55  97 W6        29.91R
ESCANABA       CLEAR     55  52  88 MISG      29.92S
MENOMINEE      CLEAR     57  55  94 CALM      29.95S
SAWYER-GWINN   PTCLDY    52  51  95 SW3       29.92S
$$
MIZ001>003-009>011-084-301100-
WESTERN UPPER MICHIGAN

CITY           SKY/WX    TMP DP  RH WIND       PRES   REMARKS
IRON MOUNTAIN  CLEAR     53  50  89 CALM      29.93R
HOUGHTON       PTCLDY    54  51  90 W8        29.88S
COPPER HARBOR    N/A     59  53  80 NW8       29.85R
IRONWOOD       CLEAR     52  50  93 W7        29.93R
$$

ABBREVIATIONS USED IN REMARKS
   TC - TEMPERATURE IN CELSIUS
  WCI - WIND CHILL INDEX
   HX - HEAT INDEX
  VSB - VISIBILITY





USA.gov is the U.S. government's official web portal to all federal, state and local government web resources and services.